Regional Weather Roundup
Issued by NWS Sioux Falls, SD

Home | Current Version | Previous Version | Graphics & Text | Print | Product List | Glossary On
Versions: 1 2 3 4 5 6 7 8 9 10 11 12 13 14 15 16 17 18 19 20 21 22 23 24 25 26 27 28 29 30 31 32 33 34 35 36 37 38 39 40 41 42 43 44 45 46 47 48 49 50
000
ASUS43 KFSD 312002
RWRFSD

WEATHER ROUNDUP FOR SE SOUTH DAKOTA/SW MINNESOTA/NW IOWA
NATIONAL WEATHER SERVICE SIOUX FALLS SD
300 PM CDT MON AUG 31 2015

NOTE: "FAIR" INDICATES FEW OR NO CLOUDS BELOW 12,000 FEET WITH NO
SIGNIFICANT WEATHER AND OR OBSTRUCTIONS TO VISIBILITY.


SDZ038>040-050-052>070-312100-
SOUTHEAST SOUTH DAKOTA

CITY           SKY/WX    TMP DP  RH WIND       PRES   REMARKS
BROOKINGS      SUNNY     81  70  69 S17       29.87S
CHAMBERLAIN    MOSUNNY   79  64  58 N15G23    29.88R
HURON          SUNNY     83  66  56 NW16      29.82R
MADISON        FAIR      81  70  69 S12G23    29.87R
MITCHELL       SUNNY     89  65  44 S9        29.83S
SIOUX FALLS    SUNNY     82  69  64 S17G25    29.87S
WINNER         FAIR      84  60  44 N18       29.92R
YANKTON        SUNNY     84  66  54 S15G21    29.84F
$$

MNZ071-072-080-081-089-090-097-098-312100-
SOUTHWEST MINNESOTA

CITY           SKY/WX    TMP DP  RH WIND       PRES   REMARKS
FAIRMONT       PTSUNNY   82  66  57 S16G22    29.93S
JACKSON        SUNNY     82  68  61 S20G25    29.93F
LUVERNE        SUNNY     82  68  61 S15G22    29.90R
MARSHALL       SUNNY     84  66  54 S18G24    29.87S
MONTEVIDEO     SUNNY     88  70  55 SW12      29.85S
PIPESTONE      MOSUNNY   81  68  65 S14G21    29.89S
REDWOOD FALLS  SUNNY     83  67  58 S20G28    29.87R
TRACY          SUNNY     82  68  63 S17G24    29.87F
WINDOM         SUNNY     82  66  57 S17G23    29.90F
WORTHINGTON    SUNNY     81  66  61 S17G28    29.91F
$$

IAZ001>003-012>014-020>022-031-032-NEZ013-014-SDZ071-312100-
NORTHWEST IOWA

CITY           SKY/WX    TMP DP  RH WIND       PRES   REMARKS
ESTHERVILLE    PTSUNNY   79  68  69 S14       29.94S
SIOUX CITY     MOSUNNY   84  69  60 S15       29.91F
SPENCER        MOSUNNY   83  68  60 S16G23    29.93F
$$

ABBREVIATIONS USED IN REMARKS
   TC - TEMPERATURE IN CELSIUS
  WCI - WIND CHILL INDEX
   HX - HEAT INDEX
  VSB - VISIBILITY




USA.gov is the U.S. government's official web portal to all federal, state and local government web resources and services.